Wichita Falls, TX

6:00 PM CDT on August 18, 2017 (GMT -0500)
Wichita Falls

Weather History for KCWC - August, 2013

Change the Weather History Date:

Wednesday, August 14, 2013

  Actual Average (KSPS) Record (KSPS)
Temperature  
Mean Temperature 81 °F -  
Max Temperature 90 °F 94 °F 107 °F (1930)
Min Temperature 72 °F 70 °F 63 °F (2004)
Cooling Degree Days 16    
Growing Degree Days 31 (Base 50)    
Moisture  
Dew Point 67 °F    
Average Humidity 64    
Maximum Humidity 90    
Minimum Humidity 39    
Precipitation  
Precipitation 0.00 in - - ()
Sea Level Pressure  
Sea Level Pressure 30.04 in    
Wind  
Wind Speed 8 mph (NE)    
Max Wind Speed 14 mph    
Max Gust Speed 18 mph    
Visibility 10 miles    
Events Thunderstorm    
Averages and records for this station are not official NWS values.
T = Trace of Precipitation, MM = Missing Value Source: NWS Daily Summary

Daily Weather History Graph

Daily Weather History Graph

Search for Another Location

Airport or City:

Trip Planner

Search our weather history database for the weather conditions in past years. The results will help you decide how hot, cold, wet, or windy it might be!

Date:

Astronomy

Aug. 14, 2013 Rise Set
Actual Time 6:55 AM CDT 8:21 PM CDT
Civil Twilight 6:28 AM CDT 8:47 PM CDT
Nautical Twilight 5:57 AM CDT 9:19 PM CDT
Astronomical Twilight 5:24 AM CDT 9:52 PM CDT
Moon 2:31 PM CDT (8/14) 12:21 AM CDT (8/14)
Length of Visible Light 14h 18m
Length of Day
13h 26m
First Quarter, 53% of the Moon is Illuminated
Aug 14
First Quarter
Aug 20
Full
Aug 28
Last Quarter
Sep 5
New
Sep 12
First Quarter

Hourly Weather History & Observations

Time (CDT) Temp. Heat Index Dew Point Humidity Pressure Visibility Wind Dir Wind Speed Gust Speed Precip Events Conditions
12:15 AM 79.2 °F - 69.4 °F 72% 30.04 in 10.0 mi NE 8.1 mph - N/A   Mostly Cloudy
12:35 AM 78.4 °F - 69.3 °F 73% 30.04 in 10.0 mi NE 8.1 mph - N/A   Scattered Clouds
12:55 AM 78.1 °F - 69.3 °F 74% 30.03 in 10.0 mi NE 6.9 mph - N/A   Scattered Clouds
1:15 AM 77.4 °F - 69.1 °F 76% 30.03 in 10.0 mi NE 5.8 mph - N/A   Scattered Clouds
1:35 AM 77.2 °F - 69.3 °F 76% 30.03 in 10.0 mi ENE 3.5 mph - N/A   Mostly Cloudy
1:55 AM 76.8 °F - 69.6 °F 78% 30.03 in 10.0 mi NE 5.8 mph - N/A   Scattered Clouds
2:15 AM 76.3 °F - 69.8 °F 80% 30.02 in 10.0 mi NE 4.6 mph - N/A   Scattered Clouds
2:35 AM 75.7 °F - 69.8 °F 82% 30.02 in 10.0 mi NE 4.6 mph - N/A   Clear
2:55 AM 75.6 °F - 70.0 °F 83% 30.02 in 10.0 mi ENE 4.6 mph - N/A   Clear
3:15 AM 75.2 °F - 70.0 °F 84% 30.02 in 10.0 mi NE 6.9 mph - N/A   Clear
3:35 AM 74.8 °F - 70.2 °F 85% 30.03 in 10.0 mi NE 6.9 mph - N/A   Scattered Clouds
3:55 AM 74.8 °F - 70.3 °F 86% 30.04 in 10.0 mi NE 6.9 mph - N/A   Mostly Cloudy
4:15 AM 74.5 °F - 70.7 °F 88% 30.04 in 10.0 mi NE 8.1 mph - N/A   Mostly Cloudy
4:35 AM 74.3 °F - 70.7 °F 88% 30.03 in 10.0 mi NE 10.4 mph 16.1 mph N/A   Overcast
4:55 AM 73.8 °F - 70.5 °F 90% 30.03 in 10.0 mi NE 11.5 mph - N/A   Overcast
5:15 AM 73.8 °F - 70.2 °F 88% 30.04 in 10.0 mi NE 10.4 mph - N/A   Overcast
5:35 AM 73.6 °F - 70.2 °F 89% 30.04 in 10.0 mi NE 9.2 mph - N/A   Overcast
5:55 AM 73.4 °F - 69.8 °F 88% 30.04 in 10.0 mi ENE 10.4 mph - N/A   Overcast
6:15 AM 73.4 °F - 69.8 °F 88% 30.05 in 10.0 mi ENE 5.8 mph - N/A   Overcast
6:35 AM 73.4 °F - 69.8 °F 88% 30.06 in 10.0 mi NE 4.6 mph - N/A   Overcast
6:55 AM 73.4 °F - 69.6 °F 88% 30.08 in 10.0 mi NNE 6.9 mph - N/A   Overcast
7:15 AM 73.4 °F - 69.3 °F 87% 30.08 in 10.0 mi NNE 5.8 mph - N/A   Overcast
7:35 AM 73.8 °F - 69.3 °F 86% 30.08 in 10.0 mi NNE 6.9 mph - N/A   Overcast
7:55 AM 73.6 °F - 68.9 °F 85% 30.09 in 10.0 mi North 10.4 mph - N/A Thunderstorm Overcast
8:15 AM 72.9 °F - 68.0 °F 85% 30.10 in 10.0 mi NNE 8.1 mph - N/A   Mostly Cloudy
8:35 AM 73.2 °F - 67.1 °F 81% 30.10 in 10.0 mi NNE 9.2 mph - N/A   Scattered Clouds
8:55 AM 73.0 °F - 66.9 °F 81% 30.10 in 10.0 mi North 6.9 mph - N/A   Clear
9:15 AM 73.6 °F - 67.1 °F 80% 30.11 in 10.0 mi North 6.9 mph - N/A   Mostly Cloudy
9:35 AM 74.5 °F - 67.3 °F 78% 30.11 in 10.0 mi NNE 5.8 mph - N/A   Overcast
9:55 AM 75.6 °F - 67.5 °F 76% 30.11 in 10.0 mi NNE 5.8 mph - N/A   Overcast
10:15 AM 77.2 °F - 67.6 °F 72% 30.11 in 10.0 mi NNE 5.8 mph - N/A   Mostly Cloudy
10:35 AM 79.5 °F - 68.0 °F 68% 30.10 in 10.0 mi NNE 8.1 mph - N/A   Scattered Clouds
10:55 AM 81.0 °F 83.6 °F 67.8 °F 64% 30.10 in 10.0 mi North 5.8 mph - N/A   Clear
11:15 AM 81.0 °F 83.6 °F 67.8 °F 64% 30.09 in 10.0 mi North 6.9 mph - N/A   Clear
11:35 AM 81.9 °F 84.6 °F 67.8 °F 62% 30.09 in 10.0 mi NNE 3.5 mph - N/A   Scattered Clouds
11:55 AM 82.8 °F 85.5 °F 67.8 °F 60% 30.09 in 10.0 mi NE 5.8 mph - N/A   Scattered Clouds
12:15 PM 83.1 °F 85.9 °F 67.5 °F 59% 30.08 in 10.0 mi North 8.1 mph - N/A   Mostly Cloudy
12:35 PM 84.4 °F 87.3 °F 67.6 °F 57% 30.08 in 10.0 mi NNE 6.9 mph - N/A   Scattered Clouds
12:55 PM 86.0 °F 88.8 °F 66.9 °F 53% 30.07 in 10.0 mi NNE 10.4 mph - N/A   Scattered Clouds
1:15 PM 86.0 °F 88.5 °F 66.6 °F 52% 30.07 in 10.0 mi North 10.4 mph - N/A   Scattered Clouds
1:35 PM 86.9 °F 89.3 °F 66.2 °F 50% 30.06 in 10.0 mi North 4.6 mph - N/A   Mostly Cloudy
1:55 PM 87.1 °F 88.9 °F 65.5 °F 48% 30.05 in 10.0 mi NNE 11.5 mph - N/A   Mostly Cloudy
2:55 PM 89.2 °F 90.2 °F 63.5 °F 42% 30.04 in 10.0 mi North 9.2 mph - N/A   Clear
3:15 PM 89.6 °F 90.8 °F 63.7 °F 42% 30.03 in 10.0 mi North 5.8 mph 9.2 mph N/A   Clear
3:35 PM 90.0 °F 91.0 °F 63.7 °F 41% 30.02 in 10.0 mi NNE 12.7 mph - N/A   Clear
3:55 PM 89.6 °F 90.8 °F 63.5 °F 42% 30.01 in 10.0 mi NNE 9.2 mph - N/A   Clear
4:15 PM 90.0 °F 90.6 °F 62.6 °F 40% 30.00 in 10.0 mi NNE 6.9 mph 10.4 mph N/A   Scattered Clouds
4:35 PM 88.5 °F 89.5 °F 63.3 °F 43% 30.00 in 10.0 mi NE 8.1 mph - N/A   Mostly Cloudy
4:55 PM 90.7 °F 91.7 °F 63.5 °F 40% 29.99 in 10.0 mi NNE 10.4 mph 18.4 mph N/A   Scattered Clouds
5:15 PM 89.8 °F 90.4 °F 62.8 °F 40% 29.99 in 10.0 mi NE 12.7 mph - N/A   Clear
5:35 PM 89.2 °F 89.9 °F 62.8 °F 41% 29.99 in 10.0 mi NNE 11.5 mph 17.3 mph N/A   Clear
5:55 PM 89.2 °F 89.9 °F 62.6 °F 41% 29.99 in 10.0 mi NNE 10.4 mph - N/A   Clear
6:15 PM 89.8 °F 90.0 °F 61.5 °F 39% 29.99 in 10.0 mi NE 8.1 mph 17.3 mph N/A   Scattered Clouds
6:35 PM 89.1 °F 89.6 °F 62.8 °F 41% 29.98 in 10.0 mi NNE 13.8 mph 17.3 mph N/A   Scattered Clouds
6:55 PM 88.5 °F 89.2 °F 62.6 °F 42% 29.98 in 10.0 mi NNE 12.7 mph 17.3 mph N/A   Clear
7:15 PM 88.2 °F 89.0 °F 62.8 °F 43% 29.98 in 10.0 mi NNE 10.4 mph - N/A   Clear
7:35 PM 87.8 °F 88.5 °F 62.4 °F 43% 29.98 in 10.0 mi NE 6.9 mph - N/A   Clear
7:55 PM 86.9 °F 87.5 °F 62.6 °F 44% 29.99 in 10.0 mi NE 11.5 mph - N/A   Clear
8:15 PM 85.8 °F 86.8 °F 63.3 °F 47% 30.00 in 10.0 mi NE 10.4 mph - N/A   Clear
8:35 PM 84.7 °F 85.9 °F 63.7 °F 49% 30.00 in 10.0 mi NE 9.2 mph - N/A   Clear
8:55 PM 83.8 °F 84.9 °F 63.5 °F 50% 30.01 in 10.0 mi NE 8.1 mph - N/A   Clear
9:15 PM 82.9 °F 84.0 °F 63.1 °F 51% 30.01 in 10.0 mi ENE 6.9 mph - N/A   Scattered Clouds
9:35 PM 82.6 °F 83.8 °F 63.5 °F 52% 30.02 in 10.0 mi ENE 8.1 mph - N/A   Scattered Clouds
9:55 PM 82.4 °F 83.9 °F 64.0 °F 54% 30.03 in 10.0 mi ENE 9.2 mph - N/A   Scattered Clouds
10:15 PM 81.5 °F 83.1 °F 64.4 °F 56% 30.04 in 10.0 mi East 8.1 mph 16.1 mph N/A   Scattered Clouds
10:35 PM 81.0 °F 82.6 °F 64.6 °F 57% 30.05 in 10.0 mi East 9.2 mph - N/A   Scattered Clouds
10:55 PM 80.6 °F 82.3 °F 64.6 °F 58% 30.05 in 10.0 mi East 8.1 mph - N/A   Scattered Clouds
11:15 PM 80.1 °F 81.8 °F 64.8 °F 59% 30.06 in 10.0 mi East 10.4 mph - N/A   Mostly Cloudy
11:35 PM 79.7 °F - 65.1 °F 61% 30.05 in 10.0 mi ENE 5.8 mph - N/A   Mostly Cloudy
11:55 PM 79.2 °F - 64.8 °F 61% 30.04 in 10.0 mi East 8.1 mph - N/A   Overcast